Location: Mt. Chestnut Observatory
(40.9038°N, 79.9956°W)
Time: 20:58:46
(UTC-04:00)

Daily predictions for brighter satellites

Satellite Brightness Start Highest point End
(mag) Time Altitude Azimuth Time Altitude Azimuth Time Altitude Azimuth
Cosmos 1782 3.3 21:05:40 10° N 21:09:32 43° ENE 21:13:24 10° SSE
Envisat 3.8 21:07:12 10° SE 21:11:47 36° ENE 21:16:25 10° N
ERBS 3.3 21:10:07 10° WNW 21:13:27 43° SW 21:16:44 10° SSE
GPS 2-05 Rocket1 4.2 21:11:00 10° SW 21:14:05 25° SSE 21:17:07 10° ESE
H-2A R/B 3.3 21:11:26 10° S 21:15:04 58° W 21:18:46 10° NNW
CZ-4 DEB 2.7 21:12:08 10° SSE 21:15:16 73° ENE 21:18:26 10° N
COSMOS 2487 4.3 21:12:45 10° NNE 21:15:17 18° ENE 21:17:48 10° ESE
Atlas Centaur 2 3.0 21:13:13 10° SW 21:15:25 15° S 21:17:36 10° SSE
Cosmos 1624 Rocket 4.1 21:10:19 10° SSW 21:15:35 86° WNW 21:20:57 10° NNE
Coronas F rocket 2.0 21:17:35 10° SSW 21:20:11 55° W 21:22:48 10° N
Cosmos 1939 Rocket 3.3 21:18:31 10° SE 21:22:12 44° ENE 21:25:57 10° N
ATLAS 5 CENTAUR R/B 2.9 21:21:38 10° NW 21:27:36 61° WSW 21:33:56 10° SSE
Cosmos 2084 3.5 21:25:24 10° S 21:29:03 41° ESE 21:32:40 10° NE
ERS-1 Rocket 3.0 21:24:16 10° SSE 21:29:17 78° ENE 21:34:21 10° N
Cosmos 407 Rocket 3.6 21:24:07 10° NNW 21:29:24 73° ENE 21:34:42 10° SSE
Cosmos 1908 Rocket 3.9 21:25:36 10° SSE 21:29:46 45° E 21:34:01 10° NNE
Meteor 2-6 Rocket 4.3 21:24:08 10° N 21:30:06 77° E 21:35:55 10° SSE
NOSS 5 (C) 4.5 21:28:15 10° SSW 21:31:39 48° ESE 21:34:41 10° NE
Cosmos 1733 Rocket 3.3 21:27:27 10° SSW 21:31:51 73° W 21:36:15 10° N
Cosmos 1378 Rocket 4.1 21:28:14 10° N 21:32:17 39° ENE 21:36:03 12° SE
Cosmos 1140 Rocket 4.5 21:30:40 10° N 21:35:14 31° ENE 21:39:06 13° ESE
H-2A R/B 4.2 21:33:52 10° E 21:36:02 12° ENE 21:38:11 10° NE
deb Chang Zheng 4 3.7 21:32:51 10° NNE 21:37:12 55° E 21:41:33 10° S
Cosmos 1452 Rocket 3.5 21:34:33 10° S 21:39:43 61° ESE 21:44:56 10° NNE
COSMOS 2406 4.0 21:36:11 10° NNW 21:41:45 52° WSW 21:47:15 10° S
Cosmos 2154 Rocket 4.0 21:36:36 10° S 21:42:42 64° E 21:48:50 10° NNE
Cosmos 1190 Rocket 4.3 21:38:53 10° NNW 21:44:03 67° WSW 21:49:11 10° S
YAOGAN 6 3.7 21:44:08 17° ESE 21:46:06 28° ENE 21:49:09 10° NNE
Cosmos 1408 2.8 21:44:01 10° SSE 21:47:33 48° E 21:51:05 10° NNE
Cosmos 1833 Rocket 4.4 21:44:11 10° N 21:48:15 20° NE 21:52:00 11° E
CZ-4B R/B 4.4 21:44:28 10° NE 21:48:34 26° E 21:51:12 17° SE
Cosmos 1242 Rocket 3.8 21:45:40 10° NNE 21:48:47 26° ENE 21:50:30 18° ESE
Cosmos 2278 Rocket 2.2 21:44:25 10° S 21:49:58 58° ESE 21:55:32 10° NNE
ALOS 4.4 21:46:18 10° SSW 21:50:07 25° W 21:53:59 10° NW
SPOT 1/Viking Rocket 4.4 21:47:23 16° SE 21:50:58 34° ENE 21:55:38 10° N
Cosmos 1825 2.2 21:48:09 10° S 21:51:54 57° E 21:55:39 10° NNE
CZ-4 SHROUD 4.0 21:50:45 21° ESE 21:52:14 33° ENE 21:55:04 10° N
Cosmos 1844 Rocket 3.2 21:47:28 10° SSW 21:53:04 65° WNW 21:58:43 10° NNE
Intercosmos 25 4.1 21:52:53 20° SE 21:54:19 26° E 21:57:03 10° NE
Cosmos 1844 3.8 21:49:05 10° SSW 21:54:50 85° WNW 22:00:42 10° NNE
PSLV R/B 3.6 21:55:39 25° SE 21:56:57 41° ENE 21:59:45 10° N
MetOp-A 4.3 21:52:41 15° SSE 21:56:59 58° ENE 22:02:14 10° N
H-2A R/B 2.1 21:55:26 12° S 21:59:30 80° WSW 22:03:45 10° NNW
Cosmos 1184 Rocket 2.8 21:59:22 15° S 22:01:56 61° E 22:05:14 10° NNE
CENTAUR R/B 4.4 21:56:32 10° NW 22:03:34 35° WSW 22:10:52 10° S
Cosmos 2082 Rocket 3.1 22:04:41 10° N 22:09:53 35° ENE 22:13:01 20° ESE
EO 1 Delta rocket 4.4 22:04:45 10° N 22:10:57 78° W 22:15:56 10° SSW
Cosmos 1850 Rocket 4.4 22:07:19 10° N 22:12:30 50° ENE 22:15:25 25° SE
Cosmos 676 Rocket 4.4 22:09:33 10° NNW 22:14:40 60° WSW 22:18:54 15° S
Terra 3.4 22:13:28 17° E 22:15:12 20° ENE 22:18:39 10° NNE
ISS -3.0 22:12:46 10° WSW 22:16:00 68° NW 22:19:15 10° NE
Cosmos 1238 Rocket 2.6 22:12:50 10° NNW 22:16:07 72° W 22:18:32 21° S
Cosmos 1174 4.2 22:14:17 10° NW 22:17:14 37° WSW 22:18:30 24° SSW
SL-08 RB Rocket 4.3 22:17:18 27° ESE 22:19:17 42° ENE 22:23:40 10° N
Cosmos 1954 Rocket 4.2 22:14:14 10° NNW 22:19:25 71° WSW 22:23:04 20° S
Cosmos 1862 4.1 22:15:53 10° SSW 22:19:51 53° W 22:23:52 10° N
SPOT 5 3.2 22:15:47 16° S 22:20:04 75° WSW 22:25:27 10° NNW
Cosmos 2297 3.8 22:19:29 10° S 22:25:02 57° ESE 22:30:39 10° NNE
USA 229 DEB 4.3 22:18:12 10° NNW 22:25:03 48° NE 22:29:26 22° ESE
USA 229 4.3 22:18:18 10° NNW 22:25:09 48° NE 22:29:32 22° ESE
COS B Rocket 4.3 22:22:04 10° NNW 22:25:57 44° W 22:29:13 11° SSW
Okean 2 Rocket 3.1 22:25:23 15° S 22:29:03 81° W 22:33:28 10° N
Okean 3 3.9 22:25:28 10° NNW 22:29:41 59° W 22:32:25 21° SSW
OAO 3 Rocket 4.1 22:26:21 10° SW 22:30:20 28° SSE 22:30:20 28° SSE
Cosmos 1741 Rocket 4.0 22:27:40 10° NNW 22:32:54 73° ENE 22:35:15 33° SSE
NOAA 11 4.2 22:30:26 28° SSE 22:33:21 72° ENE 22:38:51 10° N
Cosmos 2218 Rocket 4.0 22:33:57 22° S 22:38:14 68° E 22:44:36 10° NNE
CZ-4C R/B 3.7 22:43:58 43° E 22:44:29 46° ENE 22:48:25 10° N
BREEZE-M DEB (TANK) 3.0 22:36:24 10° WNW 22:47:05 77° SW 22:48:20 45° SE
SL-08 R/B 4.5 22:44:15 23° S 22:48:27 79° E 22:54:57 10° N
Cosmos 1110 Rocket 4.4 22:48:01 38° ESE 22:48:37 40° ESE 22:53:28 10° NE
BREEZE-M DEB (TANK) 4.3 22:48:54 10° NW 22:50:28 16° N 22:52:43 10° NE
COSMOS 2487 4.2 22:47:49 10° NW 22:50:55 27° W 22:52:14 21° SW
GPS 2-05 Rocket1 4.4 22:48:36 10° WSW 22:50:40 26° SW 22:50:40 26° SW
DELTA 2 DEB (DPAF) 4.2 22:51:58 49° SE 22:52:56 63° ENE 22:57:22 10° N
Cosmos 1727 Rocket 4.0 22:47:28 10° N 22:53:37 66° E 22:56:01 38° SSE
Cosmos 1959 Rocket 4.4 22:50:04 23° S 22:54:04 90° SE 23:00:12 10° N
AVUM R/B 4.4 22:51:06 10° N 22:54:13 34° NE 22:54:13 34° NE
APEX 4.0 22:51:35 12° SW 22:55:05 60° WNW 23:00:08 10° NNE
DNEPR-1 R/B 4.1 22:52:05 10° NW 22:57:16 58° WSW 22:58:32 42° S
Cosmos 1975 Rocket 4.4 22:54:06 10° NNW 22:58:00 34° W 23:00:24 19° SW
Cosmos 2369 Rocket 4.3 23:00:27 12° ENE 23:00:27 12° ENE 23:01:14 10° ENE
CARTOSAT-1 3.7 22:58:42 50° E 22:59:11 53° ENE 23:03:23 10° N
Meteor 2-19 Rocket 4.4 23:00:06 38° SSE 23:02:26 66° E 23:08:29 10° NNE
Cosmos 614 Rocket 4.2 23:02:03 10° NNW 23:07:04 59° WSW 23:08:37 40° SSW
ARGOS 3.6 23:05:13 31° SSW 23:07:36 56° W 23:12:52 10° NNW
Cosmos 1536 Rocket 3.5 23:06:31 10° N 23:11:01 83° W 23:11:41 64° S
CZ-4 R/B 4.2 23:08:02 10° N 23:12:39 61° WNW 23:14:48 30° SW
Meteor 1-20 Rocket 4.1 23:11:44 48° SSE 23:13:16 74° E 23:18:48 10° NNE
Meteor 2-8 Rocket 4.4 23:07:18 10° N 23:13:30 87° W 23:15:43 43° S
H-2A R/B 2.0 23:13:15 51° SSE 23:14:40 89° ENE 23:20:01 10° NNW
Cosmos 1339 Rocket 4.4 23:11:53 10° N 23:18:04 85° E 23:20:00 47° SSE
Okean 1 3.5 23:18:54 10° N 23:22:36 67° NE 23:22:36 67° NE
USA 234 3.1 23:18:00 10° NE 23:24:30 67° SE 23:30:49 11° SW
Meteor 1-25 Rocket 4.4 23:23:30 37° SSW 23:25:55 75° W 23:31:46 10° N
Cosmos 1821 Rocket 4.4 23:27:02 41° ESE 23:27:40 43° E 23:33:29 10° NNE
Cosmos 1833 Rocket 2.8 23:27:06 10° NNW 23:32:40 65° WSW 23:33:42 54° SSW
Cosmos 1934 Rocket 4.3 23:40:23 44° E 23:40:35 44° E 23:46:16 10° NNE
Cosmos 1302 Rocket 4.0 23:43:57 64° E 23:43:57 64° E 23:48:53 10° NNE
IGS 5A 4.2 23:47:10 48° W 23:47:10 48° W 23:50:54 10° NNW
Cosmos 1025 Rocket 3.9 23:45:14 10° N 23:48:39 42° NE 23:48:39 42° NE
Meteor 2-21 4.3 23:49:42 65° SE 23:50:25 72° E 23:56:37 10° NNE
Cosmos 1812 4.0 23:48:25 10° NNW 23:51:28 36° WNW 23:51:28 36° WNW
Terra 2.5 23:52:21 43° WSW 23:52:37 43° W 23:57:10 10° NNW
ISS -0.3 23:50:40 10° WNW 23:52:55 17° NNW 23:55:10 10° NNE
ALOS 2 4.4 23:53:52 21° ENE 23:53:52 21° ENE 23:56:40 10° NNE
Cosmos 2082 Rocket 3.2 23:48:51 10° NW 23:53:54 34° WSW 23:54:52 32° SW
Cosmos 1300 Rocket 4.2 23:55:02 51° W 23:55:02 51° W 23:59:22 10° N
